Location: Casco Volunteer Fire Department
(44.5576°N, 87.6146°W)
Time: 04:18:37
(UTC+00:00)

Lacrosse 5 rocket - Pass Details

Date: 22 January 2026
Orbit: 401 x 482 km, 57.0° (Epoch: 11 February)

Event Time Altitude Azimuth Distance (km) Brightness Sun altitude
Exits shadow 12:11:40 14° 321° (NW) 1,473 3.0 -12.0°
Maximum altitude 12:14:50 51° 36° (NE) 620 1.7 -11.4°
Drops below altitude 10° 12:18:31 10° 114° (ESE) 1,665 5.3 -10.8°
Sets 12:20:42 0° 119° (ESE) 2,534 6.6 -10.4°
